RH
32 32 32 30 31 47 56 59 76 66 69 64 83 91 68 57 56 56 55 56 58 56 58 60 72 71 64 56 59 67 63 77 97 84 64 65 68 78 74 86 78 82 83 79
29 29 32 33 32 30 42 51 58 56 61 86 91 64 60 58 60 56 55 60 56 51 57 63 63 66 60 59 61 65 62 76 89 80 64 55 68 69 66 67 75 80 91 73
30 26 28 31 33 36 44 51 76 52 50 62 63 61 61 59 53 51 48 50 50 52 50 53 62 67 59 60 64 60 59 78 73 74 58 68 72 70 72 69 90 80 80 71
36 27 23 25 30 38 48 41 64 66 77 57 57 56 56 57 61 52 47 48 48 51 51 49 56 63 63 63 66 64 70 83 76 76 74 71 70 65 69 80 69 70 51 70
25 35 24 20 22 30 43 47 48 54 52 52 50 58 58 59 59 55 53 50 53 47 50 50 57 52 64 69 73 72 72 70 74 83 65 70 79 70 66 63 67 67 60 59
20 34 35 22 18 20 29 41 48 52 53 57 56 57 57 58 59 55 51 52 56 54 52 53 50 53 58 58 68 75 75 80 80 77 66 72 54 53 60 61 60 52 66 50
34 24 40 37 22 19 22 31 45 54 56 59 55 51 50 54 53 56 54 52 54 54 53 49 56 62 63 65 63 58 71 70 84 90 73 46 24 34 40 51 46 46 45 40
53 29 27 43 39 25 24 26 33 45 64 56 50 50 49 49 50 52 49 51 50 52 46 57 51 59 55 62 65 68 63 75 82 88 89 57 26 42 48 45 38 41 42 38
59 50 28 29 43 40 33 30 33 39 47 40 44 48 48 56 60 57 53 52 49 46 64 60 46 39 40 53 68 56 74 72 78 85 81 51 21 28 35 26 25 18 40 44
85 60 48 28 30 43 42 40 37 38 50 47 48 44 48 52 56 58 53 50 59 54 73 64 61 60 41 47 56 77 82 85 93 93 95 81 53 36 34 24 14 25 30 31
84 88 66 52 33 28 42 47 47 46 42 38 52 49 49 55 53 51 45 51 58 74 67 65 60 61 52 51 48 72 80 92 97 92 97 80 46 43 31 25 24 25 22 23
76 84 88 72 58 41 32 36 41 46 48 47 51 54 54 53 53 53 53 45 56 51 71 74 70 61 66 59 42 53 55 52 69 73 68 42 38 30 24 27 29 28 26 23
69 72 78 87 81 68 54 42 38 42 54 54 52 64 61 58 55 52 57 55 53 57 58 63 74 70 67 64 68 45 39 42 51 42 36 40 36 31 28 26 27 27 29 31
69 71 71 78 88 85 75 63 54 53 60 79 57 63 63 58 56 58 57 57 57 63 66 63 78 75 56 65 53 55 41 40 46 50 35 28 24 24 24 23 25 26 26 27
54 65 78 79 85 92 87 70 58 57 62 65 57 61 64 65 61 59 64 62 69 68 70 84 87 77 77 76 82 90 51 50 54 43 28 30 29 29 29 29 28 28 29 31
46 67 80 81 91 95 91 73 62 59 64 62 84 65 70 66 63 65 70 74 79 75 72 78 72 70 66 90 93 60 48 41 39 40 37 42 43 42 40 37 33 34 36 35
41 53 92 91 95 96 91 83 80 84 72 69 77 78 82 76 71 78 83 84 86 82 79 90 85 77 74 92 97 52 45 47 46 44 50 52 48 54 51 44 40 40 42 43
48 56 90 97 94 97 89 87 89 84 70 71 97 91 83 75 81 83 86 88 90 89 88 88 90 75 86 98 75 61 54 50 45 46 55 58 53 55 56 52 51 51 52 50
53 71 93 100 94 99 89 78 78 75 75 93 99 100 91 73 84 86 86 86 90 86 97 93 88 92 98 81 71 56 50 61 59 49 46 57 64 62 60 58 56 54 50 48
82 95 91 90 87 87 80 92 93 93 92 92 99 97 98 71 82 88 90 89 86 86 90 84 96 94 69 54 47 53 49 46 51 53 39 32 36 49 57 62 62 61 57 55
98 83 87 96 94 90 95 95 94 94 99 94 94 95 92 79 86 90 86 96 90 96 91 94 90 94 74 45 49 36 38 34 35 35 33 35 40 46 49 50 54 58 56 45
90 88 90 88 92 94 99 98 97 99 90 84 93 89 88 86 78 82 87 91 88 95 90 93 95 84 34 39 29 19 19 21 23 29 31 36 35 37 39 39 39 39 44 46
87 96 91 93 94 100 100 100 94 95 87 89 91 84 82 85 79 83 94 98 95 84 99 98 86 46 34 39 36 36 36 37 35 31 24 25 32 35 32 35 37 38 38 39
91 100 97 95 95 83 92 93 90 74 86 83 82 80 81 84 90 88 98 89 87 100 98 85 85 35 42 39 38 42 41 42 41 40 40 39 26 27 33 33 36 37 40 46
98 99 93 82 76 87 91 85 81 74 82 76 86 82 84 95 98 97 97 99 97 98 89 86 42 45 40 41 44 46 44 45 47 43 43 44 41 39 28 31 37 38 34 34
98 96 98 83 97 85 94 91 87 76 70 74 76 93 97 97 98 98 95 97 99 84 89 44 45 47 44 44 47 51 51 52 51 48 45 48 47 46 43 33 31 34 38 40
98 95 91 80 92 85 96 87 77 75 73 86 89 99 91 94 98 96 94 94 87 50 42 32 33 48 45 48 54 46 47 44 42 43 47 49 52 53 51 49 46 42 38 40
Wind_Speed
12 13 11 5 6 6 3 3 3 10 8 4 4 2 2 3 3 2 2 0 3 2 2 2 2 3 4 4 4 1 2 4 4 8 4 6 4 7 5 4 4 3 2 7
10 11 12 9 2 1 1 3 3 10 9 3 3 2 3 3 4 3 4 4 4 3 2 3 2 2 2 3 3 2 1 1 2 6 5 2 4 5 4 3 2 5 4 6
8 10 10 10 4 2 3 1 2 4 5 4 4 2 2 2 2 3 3 3 4 4 4 3 2 2 1 2 3 4 3 0 4 6 4 4 5 6 7 6 3 3 9 8
9 8 9 11 6 1 2 2 1 1 1 2 3 2 1 2 3 3 3 3 3 2 1 2 2 2 1 1 2 2 3 3 2 6 9 6 8 9 9 12 16 9 5 12
12 9 8 9 8 3 1 1 3 3 3 0 2 2 3 3 1 0 1 3 3 3 2 3 5 3 3 5 1 4 2 3 2 5 4 5 8 14 16 17 16 18 17 24
15 11 10 7 7 5 2 3 2 1 1 1 3 3 4 4 4 3 3 3 1 2 2 3 2 4 2 1 5 5 3 1 2 5 3 8 9 15 19 7 6 20 16 26
16 13 11 11 7 4 4 3 1 2 2 1 3 2 2 4 3 2 2 3 3 2 3 8 4 5 6 6 8 6 4 2 2 4 6 2 5 0 4 13 14 17 16 19
15 15 12 10 11 6 2 2 0 1 1 2 2 1 2 1 2 2 3 3 3 4 4 2 3 3 1 0 3 5 4 4 2 1 2 9 6 2 5 6 8 13 20 20
14 14 13 11 9 9 4 3 1 1 3 3 1 2 1 2 1 4 2 2 2 1 3 3 0 3 4 2 1 4 4 4 3 0 2 5 5 1 3 3 6 4 10 9
13 12 12 12 10 8 5 6 4 1 2 4 4 3 4 3 1 1 3 1 1 0 2 2 2 3 1 2 4 5 2 1 5 4 4 9 9 6 1 2 6 5 3 8
9 12 12 11 10 9 7 4 4 2 3 5 6 6 4 4 4 4 3 2 1 2 1 2 3 3 3 1 4 6 7 6 4 3 3 9 10 5 7 5 3 5 7 8
6 7 11 12 12 10 8 7 7 7 5 4 5 7 10 11 8 2 4 2 3 5 3 1 1 3 1 4 3 2 3 7 5 11 7 7 15 11 13 11 16 19 18 19
6 5 7 9 11 11 11 10 10 9 5 6 3 2 5 10 14 17 6 4 4 3 3 4 1 4 3 4 5 2 4 8 4 1 9 17 26 29 31 35 35 37 33 26
11 7 6 7 10 12 13 13 9 4 3 2 1 3 4 3 4 7 16 17 10 4 5 4 2 3 7 3 4 4 7 5 4 6 19 27 27 18 18 22 14 16 19 22
13 13 9 8 9 12 14 8 4 5 4 3 5 11 8 4 6 9 12 15 14 8 4 2 3 4 2 3 1 4 11 7 5 8 13 12 22 26 16 18 26 18 22 23
13 12 12 8 10 9 12 4 1 5 10 6 3 3 3 5 2 2 4 6 9 7 4 4 5 4 3 2 3 11 15 18 23 17 26 32 38 41 39 29 28 27 19 17
13 13 11 8 9 9 5 6 7 12 10 4 6 4 1 2 1 1 2 6 5 5 4 4 3 2 4 3 4 5 4 15 29 31 31 30 24 22 26 25 20 17 18 20
11 11 9 9 10 12 11 12 11 8 5 4 1 3 2 1 0 0 2 3 4 5 2 2 2 3 3 5 11 22 24 29 27 16 21 31 38 34 27 21 21 21 21 20
8 7 8 9 9 5 3 5 8 7 7 3 3 2 2 1 0 0 1 1 0 1 1 3 2 2 6 8 16 24 28 21 30 30 26 19 16 17 17 18 18 20 20 17
4 1 3 5 3 4 8 4 2 3 5 5 4 4 2 2 0 1 2 1 1 2 2 2 2 4 18 25 17 16 28 22 17 21 27 29 26 22 21 19 17 17 15 15
4 2 3 5 5 4 1 2 2 3 2 4 5 7 2 3 2 2 2 2 1 1 1 1 2 4 6 5 15 19 14 16 17 18 19 19 19 21 19 17 15 14 13 11
5 3 5 4 2 1 2 2 2 3 3 4 3 4 5 2 3 2 2 2 1 4 1 2 3 4 8 13 17 17 18 19 19 18 18 18 17 17 15 12 8 5 5 7
3 2 3 3 4 2 4 4 3 3 4 7 6 2 2 3 3 1 2 2 5 3 1 4 5 9 8 11 16 19 21 24 26 27 25 23 20 17 14 9 5 3 4 4
3 3 4 5 4 5 4 4 4 3 3 10 8 4 2 3 2 3 1 3 2 2 3 6 3 4 6 16 19 24 28 30 30 31 32 31 29 23 17 14 10 8 8 8
3 4 4 5 8 5 5 8 3 2 7 9 5 2 1 1 1 3 1 1 4 5 5 3 2 1 6 23 29 24 30 31 36 36 35 32 31 31 29 22 20 21 20 19
5 7 4 7 2 8 11 9 9 9 7 5 2 3 3 4 3 4 7 4 7 5 4 8 13 13 18 32 31 32 34 39 40 38 35 32 31 31 32 29 29 28 29 28
5 7 15 13 5 7 9 8 5 10 11 3 3 3 10 0 3 4 5 6 4 12 29 34 43 36 40 38 36 41 41 40 38 39 38 35 35 35 35 35 31 32 34 32
Wind_Direction
19 16 21 37 22 43 86 43 38 1 31 52 50 57 5 2 3 9 312 109 64 85 5 101 84 151 222 173 137 117 49 119 172 209 259 194 181 188 163 135 235 225 163 272
19 15 9 6 10 304 312 87 78 29 40 81 353 346 51 55 16 359 30 37 24 13 47 73 88 86 26 98 64 92 339 17 47 350 352 356 212 203 182 124 90 219 153 260
16 12 7 5 1 128 158 166 52 61 59 79 121 98 35 82 22 347 19 30 42 14 24 43 112 96 32 90 76 75 57 339 189 193 208 152 207 216 196 162 159 208 231 282
13 10 8 0 6 157 169 120 134 124 196 10 100 94 24 79 20 1 16 37 53 29 61 48 94 114 56 38 141 95 118 241 236 246 242 239 232 227 206 205 219 205 205 223
13 13 12 6 1 27 145 5 136 149 141 206 90 354 173 162 175 142 346 118 335 11 197 208 199 164 184 206 202 175 175 263 350 282 269 220 254 240 229 228 228 242 254 273
12 17 23 22 10 359 69 94 116 281 151 116 94 215 186 205 165 208 197 174 55 309 209 195 242 247 238 137 168 197 163 168 33 267 334 303 280 234 208 202 213 224 236 245
15 15 16 31 39 38 65 68 72 16 290 111 212 201 196 186 202 203 234 211 169 198 277 293 271 241 235 222 232 192 153 151 141 276 343 321 258 290 153 208 237 223 245 254
14 15 16 20 34 57 56 76 83 135 212 228 325 187 230 293 273 253 244 227 237 293 317 51 45 347 326 88 194 199 172 119 315 10 268 290 325 38 151 178 280 224 229 249
10 10 13 16 25 35 63 77 99 170 140 244 194 195 237 202 225 334 250 249 269 274 80 59 161 214 203 216 125 39 99 92 139 107 275 264 246 274 176 137 298 294 217 252
8 8 6 14 13 26 40 37 39 180 256 221 205 197 178 162 138 234 300 299 199 218 94 107 201 283 250 236 189 171 152 178 197 203 264 283 247 228 131 72 247 334 300 265
355 6 5 2 14 9 6 13 18 3 259 240 227 223 212 185 192 154 175 19 274 48 93 149 215 186 233 270 200 184 174 156 200 152 212 273 185 93 168 221 300 295 290 279
338 351 5 2 357 6 2 342 336 323 281 251 225 235 241 242 232 295 218 232 166 198 97 246 97 238 190 178 255 152 238 194 183 189 217 243 197 225 238 273 285 286 288 284
315 331 343 351 354 353 355 345 332 329 298 287 253 220 231 250 247 231 223 225 219 196 205 185 226 252 135 203 236 221 254 193 231 145 252 249 255 260 270 281 279 284 282 279
307 306 314 330 338 343 342 338 336 335 318 310 204 221 251 249 237 228 230 239 248 261 222 235 200 208 191 234 270 206 222 155 210 264 283 289 283 293 313 299 307 308 296 290
301 301 294 310 325 333 335 332 6 60 12 282 283 288 285 264 262 256 248 240 233 211 190 187 227 239 271 253 291 238 195 217 193 239 267 273 287 308 310 294 296 300 302 300
290 289 285 291 308 325 337 295 356 25 6 317 313 281 276 304 301 235 211 209 216 209 204 225 242 251 238 274 252 257 242 258 259 276 289 295 294 298 295 286 281 290 283 283
282 281 272 283 292 296 305 283 287 305 331 314 306 313 268 298 310 122 146 171 176 193 221 234 266 283 234 264 254 266 274 299 307 302 303 299 300 315 312 294 287 279 285 289
271 269 260 264 272 287 289 281 283 285 259 254 254 277 312 184 348 198 137 147 184 199 227 248 230 257 232 254 256 286 297 308 310 326 313 298 298 299 296 298 290 291 294 295
268 257 258 275 271 261 240 274 276 248 221 227 195 208 273 147 36 112 141 141 226 239 236 236 162 216 230 238 281 291 312 309 309 314 324 337 327 317 307 306 302 296 299 299
225 206 257 257 227 243 296 298 260 186 210 227 225 202 239 173 197 225 134 147 278 256 243 187 222 261 264 273 290 309 315 319 319 314 326 333 331 324 312 306 305 298 292 295
141 196 237 264 275 288 271 235 214 188 249 228 238 216 195 182 150 207 184 194 178 271 231 241 262 272 251 294 323 345 342 337 335 321 319 318 318 322 321 318 312 303 301 309
170 214 271 266 238 235 266 220 234 226 218 208 210 217 202 185 197 157 172 153 169 242 145 221 255 252 290 338 354 8 7 4 358 348 338 331 329 328 327 326 330 329 326 326
230 223 237 213 188 192 211 219 230 238 206 191 182 164 150 172 207 223 95 178 222 139 85 231 231 254 314 356 9 20 18 10 3 357 348 337 329 326 323 318 313 309 309 322
208 224 241 216 203 218 203 179 205 215 204 179 170 136 157 163 139 180 182 232 97 26 251 239 247 237 9 14 357 350 350 348 346 341 338 339 333 319 307 302 292 282 279 279
228 212 241 235 233 245 276 231 194 169 158 152 136 98 166 7 266 209 155 201 228 215 233 233 270 104 10 352 336 330 323 322 331 330 325 322 322 320 310 290 282 281 278 272
225 228 240 237 270 245 244 244 218 209 178 157 141 114 48 249 193 200 211 181 218 240 216 262 317 325 312 324 331 327 323 319 318 320 320 313 314 311 305 297 288 286 281 278
228 240 227 233 236 223 224 214 217 189 179 185 142 155 222 75 227 223 198 212 227 280 301 307 299 305 314 320 318 319 319 318 316 316 315 309 308 309 303 299 297 291 289 285